Location: Chiroubles
(46.1812°N, 4.6660°E)
Time: 17:12:40
(UTC+00:00)

Transit 2A Rocket - All Passes

Search period start: 04 December 2020 00:00
Search period end: 14 December 2020 00:00
Orbit: 589 x 914 km, 66.7° (Epoch: 03 December)

Date Brightness Start Highest point End Pass type
(mag) Time Alt. Az. Time Alt. Az. Time Alt. Az.
04 Dec - 01:39:20 10° WSW 01:44:43 36° NW 01:49:45 10° NNE night (unlit)
04 Dec - 03:27:06 10° NW 03:28:54 11° NNW 03:30:39 10° N visible
04 Dec - 06:56:30 10° N 06:59:15 15° NNE 07:01:53 10° ENE daylight
04 Dec - 08:38:06 10° NNW 08:42:57 62° NE 08:47:24 10° SE daylight
04 Dec - 10:21:53 10° WNW 10:24:53 17° WSW 10:27:45 10° SSW daylight
04 Dec - 23:14:23 10° S 23:19:30 30° ESE 23:24:22 10° NE night (unlit)
05 Dec - 00:56:09 10° SW 01:01:56 53° NW 01:07:19 10° NNE night (unlit)
05 Dec - 02:42:31 10° WNW 02:45:42 15° NNW 02:48:47 10° N visible
05 Dec - 06:14:45 10° N 06:16:04 11° NNE 06:17:23 10° NE visible
05 Dec - 07:55:37 10° NNW 08:00:12 38° NE 08:04:26 10° ESE daylight
05 Dec - 09:38:30 10° NW 09:42:37 30° WSW 09:46:28 10° S daylight
05 Dec - 22:33:10 10° SSE 22:37:10 19° ESE 22:41:01 10° ENE night (unlit)
06 Dec - 00:13:18 10° SW 00:19:15 81° WNW 00:24:48 10° NNE night (unlit)
06 Dec - 01:58:27 10° W 02:02:38 20° NW 02:06:37 10° N night (unlit)
06 Dec - 07:13:15 10° NNW 07:17:20 25° NE 07:21:08 10° E daylight
06 Dec - 08:55:34 10° NW 09:00:14 53° WSW 09:04:32 10° SSE daylight
06 Dec - 21:53:36 10° ESE 21:54:56 11° ESE 21:56:16 10° E night (unlit)
06 Dec - 23:30:47 10° SSW 23:36:40 66° ESE 23:42:10 10° NE night (unlit)
07 Dec - 01:14:43 10° W 01:19:40 28° NW 01:24:20 10° NNE night (unlit)
07 Dec - 06:31:00 10° N 06:34:19 18° NNE 06:37:29 10° ENE visible
07 Dec - 08:12:52 10° NNW 08:17:43 87° ENE 08:22:10 10° SSE daylight
07 Dec - 09:57:59 10° W 09:59:22 11° WSW 10:00:43 10° WSW daylight
07 Dec - 22:48:39 10° S 22:54:10 41° ESE 22:59:22 10° NE night (unlit)
08 Dec - 00:31:18 10° WSW 00:36:49 40° NW 00:41:57 10° NNE night (unlit)
08 Dec - 02:18:34 10° NW 02:20:51 12° NNW 02:23:04 10° N night (unlit)
08 Dec - 05:48:57 10° N 05:51:13 13° NNE 05:53:24 10° NE visible
08 Dec - 07:30:19 10° NNW 07:35:03 51° NE 07:39:25 10° SE daylight
08 Dec - 09:13:43 10° WNW 09:17:10 21° WSW 09:20:26 10° SSW daylight
08 Dec - 22:07:00 10° SSE 22:11:46 26° ESE 22:16:19 10° NE night (unlit)
08 Dec - 23:48:14 10° SW 23:54:04 61° NW 23:59:30 10° NNE night (unlit)
09 Dec - 01:34:11 10° WNW 01:37:42 16° NNW 01:41:03 10° N night (unlit)
09 Dec - 06:47:52 10° NNW 06:52:16 32° NE 06:56:19 10° ESE daylight
09 Dec - 08:30:32 10° NW 08:34:51 36° WSW 08:38:53 10° S daylight
09 Dec - 21:26:08 10° SE 21:29:28 16° ESE 21:32:42 10° ENE night (unlit)
09 Dec - 23:05:30 10° SSW 23:11:25 87° SE 23:16:57 10° NE night (unlit)
10 Dec - 00:50:13 10° W 00:54:40 22° NW 00:58:51 10° NNE night (unlit)
10 Dec - 06:05:33 10° NNW 06:09:21 22° NE 06:12:54 10° E visible
10 Dec - 07:47:41 10° NW 07:52:25 65° WSW 07:56:47 10° SSE daylight
10 Dec - 22:23:06 10° SSW 22:28:52 56° ESE 22:34:15 10° NE night (unlit)
11 Dec - 00:06:37 10° WSW 00:11:44 32° NW 00:16:33 10° NNE night (unlit)
11 Dec - 01:55:12 10° NNW 01:56:02 10° NNW 01:56:50 10° NNW night (unlit)
11 Dec - 05:23:22 10° N 05:26:18 16° NNE 05:29:07 10° ENE visible
11 Dec - 07:05:03 10° NNW 07:09:51 72° NE 07:14:16 10° SE daylight
11 Dec - 08:49:18 10° WNW 08:51:39 14° WSW 08:53:56 10° SW daylight
11 Dec - 21:41:08 10° S 21:46:25 35° ESE 21:51:23 10° NE night (unlit)
11 Dec - 23:23:19 10° WSW 23:28:55 46° NW 23:34:08 10° NNE night (unlit)
12 Dec - 01:10:07 10° WNW 01:12:48 13° NNW 01:15:24 10° N night (unlit)
12 Dec - 04:41:30 10° N 04:43:09 11° NNE 04:44:46 10° NE visible
12 Dec - 06:22:32 10° NNW 06:27:09 43° NE 06:31:24 10° ESE visible
12 Dec - 08:05:38 10° NW 08:09:25 25° WSW 08:12:59 10° SSW daylight
12 Dec - 20:59:42 10° SSE 21:04:01 22° ESE 21:08:10 10° ENE night (unlit)
12 Dec - 22:40:21 10° SW 22:46:13 71° NW 22:51:40 10° NNE night (unlit)
13 Dec - 00:25:53 10° WNW 00:29:42 18° NW 00:33:20 10° N night (unlit)
13 Dec - 05:40:09 10° NNW 05:44:19 28° NE 05:48:11 10° ESE visible
13 Dec - 07:22:35 10° NW 07:27:04 44° WSW 07:31:13 10° S daylight
13 Dec - 20:19:21 10° SE 20:21:46 13° ESE 20:24:07 10° E night (unlit)
13 Dec - 21:57:43 10° SSW 22:03:36 75° ESE 22:09:04 10° NE night (unlit)
13 Dec - 23:42:03 10° W 23:46:42 25° NW 23:51:05 10° NNE night (unlit)
